Time,TemperatureF,DewpointF,PressureIn,WindDirection,WindDirectionDegrees,WindSpeedMPH,WindSpeedGustMPH,Humidity,HourlyPrecipIn,Conditions,Clouds,dailyrainin,SoftwareType,DateUTC
2013-03-17 00:00:00,33.4,27.9,29.89,West,262,0.0,1.0,80,0.00,,,0.00,meteohub,2013-03-17 04:00:00,
2013-03-17 00:01:00,33.3,27.7,29.89,West,262,0.0,2.0,80,0.00,,,0.00,meteohub,2013-03-17 04:01:00,
2013-03-17 00:06:00,33.3,27.7,29.89,WSW,239,1.0,2.0,80,0.00,,,0.00,meteohub,2013-03-17 04:06:00,
2013-03-17 00:11:00,33.3,27.7,29.89,West,270,2.0,3.0,80,0.00,,,0.00,meteohub,2013-03-17 04:11:00,
2013-03-17 00:16:00,33.4,28.2,29.89,West,259,2.0,3.0,81,0.00,,,0.00,meteohub,2013-03-17 04:16:00,
2013-03-17 00:21:00,33.4,27.9,29.89,West,262,1.0,3.0,80,0.00,,,0.00,meteohub,2013-03-17 04:21:00,
2013-03-17 00:26:00,33.4,27.9,29.89,WSW,255,3.0,3.0,80,0.00,,,0.00,meteohub,2013-03-17 04:26:00,
2013-03-17 00:32:00,33.3,27.7,29.90,West,260,0.0,3.0,80,0.00,,,0.00,meteohub,2013-03-17 04:32:00,
2013-03-17 00:37:00,33.3,28.0,29.90,WNW,288,2.0,3.0,81,0.00,,,0.00,meteohub,2013-03-17 04:37:00,
2013-03-17 00:42:00,33.3,28.0,29.90,West,269,0.0,3.0,81,0.00,,,0.00,meteohub,2013-03-17 04:42:00,
2013-03-17 00:47:00,33.3,28.0,29.90,West,268,0.0,3.0,81,0.00,,,0.00,meteohub,2013-03-17 04:47:00,
2013-03-17 00:52:00,33.3,28.0,29.90,West,264,0.0,3.0,81,0.00,,,0.00,meteohub,2013-03-17 04:52:00,
2013-03-17 00:57:00,33.3,28.0,29.90,West,277,3.0,3.0,81,0.00,,,0.00,meteohub,2013-03-17 04:57:00,
2013-03-17 01:02:00,33.3,28.0,29.90,West,277,0.0,4.0,81,0.00,,,0.00,meteohub,2013-03-17 05:02:00,
2013-03-17 01:07:00,33.3,28.0,29.90,West,280,2.0,4.0,81,0.00,,,0.00,meteohub,2013-03-17 05:07:00,
2013-03-17 01:12:00,33.3,28.0,29.90,WSW,257,1.0,4.0,81,0.00,,,0.00,meteohub,2013-03-17 05:12:00,
2013-03-17 01:17:00,33.3,28.0,29.90,West,271,3.0,3.0,81,0.00,,,0.00,meteohub,2013-03-17 05:17:00,
2013-03-17 01:22:00,33.3,28.0,29.90,WNW,283,1.0,3.0,81,0.00,,,0.00,meteohub,2013-03-17 05:22:00,
2013-03-17 01:27:00,33.3,28.0,29.91,WNW,298,3.0,3.0,81,0.00,,,0.00,meteohub,2013-03-17 05:27:00,
2013-03-17 01:32:00,33.4,28.2,29.91,WNW,298,3.0,5.0,81,0.00,,,0.00,meteohub,2013-03-17 05:32:00,
2013-03-17 01:37:00,33.3,28.0,29.91,NW,308,2.0,5.0,81,0.00,,,0.00,meteohub,2013-03-17 05:37:00,
2013-03-17 01:42:00,33.3,28.0,29.91,WNW,294,2.0,5.0,81,0.00,,,0.00,meteohub,2013-03-17 05:42:00,
2013-03-17 01:47:00,33.3,27.7,29.91,NW,316,2.0,5.0,80,0.00,,,0.00,meteohub,2013-03-17 05:47:00,
2013-03-17 01:52:00,33.1,27.5,29.91,WNW,295,2.0,5.0,80,0.00,,,0.00,meteohub,2013-03-17 05:52:00,
2013-03-17 01:57:00,33.1,27.5,29.91,NW,311,3.0,6.0,80,0.00,,,0.00,meteohub,2013-03-17 05:57:00,
2013-03-17 02:02:00,32.9,27.5,29.91,WNW,294,3.0,6.0,80,0.00,,,0.00,meteohub,2013-03-17 06:02:00,
2013-03-17 02:07:00,32.7,27.5,29.91,WNW,298,3.0,6.0,81,0.00,,,0.00,meteohub,2013-03-17 06:07:00,
2013-03-17 02:12:00,32.5,27.3,29.91,NW,310,1.0,5.0,81,0.00,,,0.00,meteohub,2013-03-17 06:12:00,
2013-03-17 02:17:00,32.4,27.1,29.91,WNW,294,3.0,4.0,81,0.00,,,0.00,meteohub,2013-03-17 06:17:00,
2013-03-17 02:22:00,32.2,27.0,29.91,WNW,294,2.0,4.0,81,0.00,,,0.00,meteohub,2013-03-17 06:22:00,
2013-03-17 02:28:00,32.2,27.0,29.91,WNW,302,3.0,5.0,81,0.00,,,0.00,meteohub,2013-03-17 06:28:00,
2013-03-17 02:33:00,32.0,27.1,29.91,WNW,296,2.0,5.0,82,0.00,,,0.00,meteohub,2013-03-17 06:33:00,
2013-03-17 02:38:00,31.8,27.0,29.91,NW,310,5.0,6.0,82,0.00,,,0.00,meteohub,2013-03-17 06:38:00,
2013-03-17 02:43:00,31.8,27.0,29.91,WNW,294,2.0,6.0,82,0.00,,,0.00,meteohub,2013-03-17 06:43:00,
2013-03-17 02:48:00,31.6,26.8,29.91,WNW,298,4.0,7.0,82,0.00,,,0.00,meteohub,2013-03-17 06:48:00,
2013-03-17 02:53:00,31.6,26.8,29.90,NW,304,2.0,7.0,82,0.00,,,0.00,meteohub,2013-03-17 06:53:00,
2013-03-17 02:58:00,31.6,26.8,29.91,NW,310,4.0,7.0,82,0.00,,,0.00,meteohub,2013-03-17 06:58:00,
2013-03-17 03:03:00,31.5,26.6,29.91,WNW,284,2.0,7.0,82,0.00,,,0.00,meteohub,2013-03-17 07:03:00,
2013-03-17 03:08:00,31.3,26.4,29.91,WNW,288,3.0,7.0,82,0.00,,,0.00,meteohub,2013-03-17 07:08:00,
2013-03-17 03:13:00,31.3,26.4,29.91,NNW,328,2.0,5.0,82,0.00,,,0.00,meteohub,2013-03-17 07:13:00,
2013-03-17 03:18:00,31.1,26.2,29.91,WNW,295,0.0,5.0,82,0.00,,,0.00,meteohub,2013-03-17 07:18:00,
2013-03-17 03:23:00,30.9,26.1,29.90,WNW,298,0.0,5.0,82,0.00,,,0.00,meteohub,2013-03-17 07:23:00,
2013-03-17 03:28:00,30.7,26.2,29.91,NW,310,2.0,5.0,83,0.00,,,0.00,meteohub,2013-03-17 07:28:00,
2013-03-17 03:33:00,30.7,26.2,29.91,WNW,291,3.0,5.0,83,0.00,,,0.00,meteohub,2013-03-17 07:33:00,
2013-03-17 03:38:00,30.6,26.1,29.91,NW,304,3.0,4.0,83,0.00,,,0.00,meteohub,2013-03-17 07:38:00,
2013-03-17 03:43:00,30.6,26.1,29.91,WNW,294,3.0,6.0,83,0.00,,,0.00,meteohub,2013-03-17 07:43:00,
2013-03-17 03:48:00,30.6,26.1,29.91,NW,318,1.0,6.0,83,0.00,,,0.00,meteohub,2013-03-17 07:48:00,
2013-03-17 03:53:00,30.6,25.7,29.91,NW,310,4.0,6.0,82,0.00,,,0.00,meteohub,2013-03-17 07:53:00,
2013-03-17 03:58:00,30.6,25.3,29.91,NW,310,1.0,5.0,81,0.00,,,0.00,meteohub,2013-03-17 07:58:00,
2013-03-17 04:03:00,30.4,25.3,29.92,NW,310,3.0,5.0,81,0.00,,,0.00,meteohub,2013-03-17 08:03:00,
2013-03-17 04:08:00,30.4,25.0,29.92,NNW,330,3.0,5.0,80,0.00,,,0.00,meteohub,2013-03-17 08:08:00,
2013-03-17 04:13:00,30.4,25.0,29.92,WNW,300,2.0,5.0,80,0.00,,,0.00,meteohub,2013-03-17 08:13:00,
2013-03-17 04:18:00,30.2,24.4,29.92,NW,318,3.0,6.0,79,0.00,,,0.00,meteohub,2013-03-17 08:18:00,
2013-03-17 04:23:00,30.2,24.3,29.92,NW,324,4.0,6.0,78,0.00,,,0.00,meteohub,2013-03-17 08:23:00,
2013-03-17 04:28:00,30.0,24.1,29.93,NW,324,4.0,7.0,78,0.00,,,0.00,meteohub,2013-03-17 08:28:00,
2013-03-17 04:33:00,30.0,23.7,29.93,NW,314,3.0,7.0,77,0.00,,,0.00,meteohub,2013-03-17 08:33:00,
2013-03-17 04:38:00,30.0,23.4,29.94,NW,324,3.0,7.0,76,0.00,,,0.00,meteohub,2013-03-17 08:38:00,
2013-03-17 04:43:00,29.8,22.8,29.94,NW,326,2.0,7.0,75,0.00,,,0.00,meteohub,2013-03-17 08:43:00,
2013-03-17 04:48:00,29.8,22.8,29.94,NW,319,2.0,7.0,75,0.00,,,0.00,meteohub,2013-03-17 08:48:00,
2013-03-17 04:53:00,29.7,22.5,29.95,NW,319,1.0,6.0,74,0.00,,,0.00,meteohub,2013-03-17 08:53:00,
2013-03-17 04:58:00,29.7,22.5,29.94,NW,319,2.0,6.0,74,0.00,,,0.00,meteohub,2013-03-17 08:58:00,
2013-03-17 05:03:00,29.5,21.9,29.94,WNW,296,3.0,6.0,73,0.00,,,0.00,meteohub,2013-03-17 09:03:00,
2013-03-17 05:08:00,29.7,21.7,29.94,NW,318,2.0,6.0,72,0.00,,,0.00,meteohub,2013-03-17 09:08:00,
2013-03-17 05:14:00,29.7,21.4,29.95,NW,310,2.0,5.0,71,0.00,,,0.00,meteohub,2013-03-17 09:14:00,
2013-03-17 05:19:00,29.5,21.2,29.95,WNW,290,2.0,5.0,71,0.00,,,0.00,meteohub,2013-03-17 09:19:00,
2013-03-17 05:24:00,29.3,21.0,29.95,NNW,338,1.0,5.0,71,0.00,,,0.00,meteohub,2013-03-17 09:24:00,
2013-03-17 05:27:00,29.3,21.0,29.96,NW,324,2.0,5.0,71,0.00,,,0.00,meteohub,2013-03-17 09:27:00,
2013-03-17 05:32:00,29.1,20.8,29.96,NW,310,2.0,5.0,71,0.00,,,0.00,meteohub,2013-03-17 09:32:00,
2013-03-17 05:37:00,28.9,20.7,29.96,WNW,285,2.0,3.0,71,0.00,,,0.00,meteohub,2013-03-17 09:37:00,
2013-03-17 05:42:00,28.9,20.7,29.96,NW,321,2.0,3.0,71,0.00,,,0.00,meteohub,2013-03-17 09:42:00,
2013-03-17 05:47:00,28.8,20.5,29.96,NW,324,2.0,4.0,71,0.00,,,0.00,meteohub,2013-03-17 09:47:00,
2013-03-17 05:52:00,28.8,20.5,29.97,WNW,295,1.0,4.0,71,0.00,,,0.00,meteohub,2013-03-17 09:52:00,
2013-03-17 05:57:00,28.8,20.8,29.97,WNW,298,2.0,5.0,72,0.00,,,0.00,meteohub,2013-03-17 09:57:00,
2013-03-17 06:02:00,28.8,20.8,29.98,NW,310,0.0,5.0,72,0.00,,,0.00,meteohub,2013-03-17 10:02:00,
2013-03-17 06:07:00,28.6,20.7,29.98,WNW,290,3.0,5.0,72,0.00,,,0.00,meteohub,2013-03-17 10:07:00,
2013-03-17 06:12:00,28.6,21.0,29.98,NW,314,2.0,4.0,73,0.00,,,0.00,meteohub,2013-03-17 10:12:00,
2013-03-17 06:17:00,28.2,21.0,29.98,WNW,291,3.0,4.0,74,0.00,,,0.00,meteohub,2013-03-17 10:17:00,
2013-03-17 06:22:00,28.2,21.0,29.98,NW,304,1.0,4.0,74,0.00,,,0.00,meteohub,2013-03-17 10:22:00,
2013-03-17 06:27:00,28.0,20.8,29.98,WNW,294,1.0,4.0,74,0.00,,,0.00,meteohub,2013-03-17 10:27:00,
2013-03-17 06:32:00,28.0,20.8,29.98,NW,318,1.0,4.0,74,0.00,,,0.00,meteohub,2013-03-17 10:32:00,
2013-03-17 06:37:00,27.9,21.0,29.98,NW,322,0.0,5.0,75,0.00,,,0.00,meteohub,2013-03-17 10:37:00,
2013-03-17 06:42:00,27.7,20.8,29.98,NW,304,2.0,4.0,75,0.00,,,0.00,meteohub,2013-03-17 10:42:00,
2013-03-17 06:47:00,27.7,20.8,29.99,WNW,286,5.0,5.0,75,0.00,,,0.00,meteohub,2013-03-17 10:47:00,
2013-03-17 06:52:00,27.5,20.7,29.99,NW,318,0.0,6.0,75,0.00,,,0.00,meteohub,2013-03-17 10:52:00,
2013-03-17 06:57:00,27.5,20.7,29.99,WNW,288,1.0,6.0,75,0.00,,,0.00,meteohub,2013-03-17 10:57:00,
2013-03-17 07:02:00,27.5,20.3,30.00,WNW,293,5.0,6.0,74,0.00,,,0.00,meteohub,2013-03-17 11:02:00,
2013-03-17 07:07:00,27.7,20.5,30.00,WNW,291,6.0,6.0,74,0.00,,,0.00,meteohub,2013-03-17 11:07:00,
2013-03-17 07:13:00,27.9,19.9,30.00,NW,307,4.0,8.0,72,0.00,,,0.00,meteohub,2013-03-17 11:13:00,
2013-03-17 07:18:00,28.0,19.9,30.00,WNW,298,10.0,10.0,71,0.00,,,0.00,meteohub,2013-03-17 11:18:00,
2013-03-17 07:23:00,28.2,19.8,30.00,WNW,297,7.0,10.0,70,0.00,,,0.00,meteohub,2013-03-17 11:23:00,
2013-03-17 07:28:00,28.2,19.8,30.00,WNW,298,4.0,10.0,70,0.00,,,0.00,meteohub,2013-03-17 11:28:00,
2013-03-17 07:33:00,28.6,19.8,30.01,NW,318,3.0,10.0,69,0.00,,,0.00,meteohub,2013-03-17 11:33:00,
2013-03-17 07:38:00,28.6,19.8,30.01,NW,324,4.0,10.0,69,0.00,,,0.00,meteohub,2013-03-17 11:38:00,
2013-03-17 07:43:00,28.6,19.8,30.01,WNW,290,6.0,10.0,69,0.00,,,0.00,meteohub,2013-03-17 11:43:00,
2013-03-17 07:48:00,28.6,19.8,30.01,NW,305,4.0,10.0,69,0.00,,,0.00,meteohub,2013-03-17 11:48:00,
2013-03-17 07:53:00,28.6,19.4,30.01,NW,315,6.0,10.0,68,0.00,,,0.00,meteohub,2013-03-17 11:53:00,
2013-03-17 07:58:00,28.8,19.6,30.01,WNW,291,6.0,11.0,68,0.00,,,0.00,meteohub,2013-03-17 11:58:00,
2013-03-17 08:03:00,28.8,19.6,30.01,NW,307,8.0,12.0,68,0.00,,,0.00,meteohub,2013-03-17 12:03:00,
2013-03-17 08:08:00,28.9,19.8,30.02,NW,310,6.0,12.0,68,0.00,,,0.00,meteohub,2013-03-17 12:08:00,
2013-03-17 08:13:00,28.9,19.4,30.03,WNW,300,9.0,13.0,67,0.00,,,0.00,meteohub,2013-03-17 12:13:00,
2013-03-17 08:18:00,29.1,19.2,30.03,NW,311,12.0,13.0,66,0.00,,,0.00,meteohub,2013-03-17 12:18:00,
2013-03-17 08:23:00,29.1,19.2,30.03,NW,308,3.0,14.0,66,0.00,,,0.00,meteohub,2013-03-17 12:23:00,
2013-03-17 08:28:00,29.5,19.6,30.03,NW,319,5.0,14.0,66,0.00,,,0.00,meteohub,2013-03-17 12:28:00,
2013-03-17 08:33:00,29.5,19.2,30.03,WNW,291,6.0,14.0,65,0.00,,,0.00,meteohub,2013-03-17 12:33:00,
2013-03-17 08:38:00,29.7,19.0,30.03,WNW,302,11.0,16.0,64,0.00,,,0.00,meteohub,2013-03-17 12:38:00,
2013-03-17 08:43:00,29.8,19.2,30.04,WNW,302,7.0,16.0,64,0.00,,,0.00,meteohub,2013-03-17 12:43:00,
2013-03-17 08:48:00,30.2,19.6,30.04,NW,325,9.0,16.0,64,0.00,,,0.00,meteohub,2013-03-17 12:48:00,
2013-03-17 08:53:00,30.0,18.5,30.04,WNW,293,8.0,14.0,62,0.00,,,0.00,meteohub,2013-03-17 12:53:00,
2013-03-17 08:58:00,30.4,18.9,30.04,NW,326,3.0,14.0,62,0.00,,,0.00,meteohub,2013-03-17 12:58:00,
2013-03-17 09:03:00,30.7,19.2,30.04,NW,304,6.0,14.0,62,0.00,,,0.00,meteohub,2013-03-17 13:03:00,
2013-03-17 09:08:00,31.1,19.2,30.04,NW,316,10.0,14.0,61,0.00,,,0.00,meteohub,2013-03-17 13:08:00,
2013-03-17 09:13:00,31.1,19.2,30.05,NW,318,5.0,13.0,61,0.00,,,0.00,meteohub,2013-03-17 13:13:00,
2013-03-17 09:18:00,31.1,19.2,30.05,NW,321,5.0,12.0,61,0.00,,,0.00,meteohub,2013-03-17 13:18:00,
2013-03-17 09:23:00,31.5,19.2,30.05,WNW,297,7.0,12.0,60,0.00,,,0.00,meteohub,2013-03-17 13:23:00,
2013-03-17 09:28:00,31.5,18.9,30.05,NW,319,6.0,12.0,59,0.00,,,0.00,meteohub,2013-03-17 13:28:00,
2013-03-17 09:33:00,31.5,18.3,30.05,NW,319,8.0,14.0,58,0.00,,,0.00,meteohub,2013-03-17 13:33:00,
2013-03-17 09:38:00,31.5,18.3,30.05,NW,318,6.0,14.0,58,0.00,,,0.00,meteohub,2013-03-17 13:38:00,
2013-03-17 09:43:00,31.6,18.5,30.05,WNW,290,8.0,14.0,58,0.00,,,0.00,meteohub,2013-03-17 13:43:00,
2013-03-17 09:48:00,31.8,18.3,30.05,NNW,335,10.0,14.0,57,0.00,,,0.00,meteohub,2013-03-17 13:48:00,
2013-03-17 09:53:00,32.2,18.3,30.05,WNW,290,8.0,12.0,56,0.00,,,0.00,meteohub,2013-03-17 13:53:00,
2013-03-17 09:58:00,31.8,18.0,30.05,WNW,298,6.0,14.0,56,0.00,,,0.00,meteohub,2013-03-17 13:58:00,
2013-03-17 10:03:00,32.2,17.8,30.05,WNW,290,8.0,16.0,55,0.00,,,0.00,meteohub,2013-03-17 14:03:00,
2013-03-17 10:08:00,32.4,17.6,30.05,NNW,328,4.0,16.0,54,0.00,,,0.00,meteohub,2013-03-17 14:08:00,
2013-03-17 10:13:00,32.4,16.7,30.06,NNW,343,6.0,16.0,52,0.00,,,0.00,meteohub,2013-03-17 14:13:00,
2013-03-17 10:19:00,32.4,15.8,30.06,NW,312,13.0,18.0,50,0.00,,,0.00,meteohub,2013-03-17 14:19:00,
2013-03-17 10:24:00,32.5,15.4,30.06,NW,322,11.0,18.0,49,0.00,,,0.00,meteohub,2013-03-17 14:24:00,
2013-03-17 10:29:00,32.5,15.1,30.06,NW,305,11.0,18.0,48,0.00,,,0.00,meteohub,2013-03-17 14:29:00,
2013-03-17 10:34:00,32.5,14.5,30.06,NW,308,16.0,18.0,47,0.00,,,0.00,meteohub,2013-03-17 14:34:00,
2013-03-17 10:39:00,32.5,14.0,30.06,NW,316,10.0,18.0,46,0.00,,,0.00,meteohub,2013-03-17 14:39:00,
2013-03-17 10:44:00,33.1,14.0,30.06,NW,320,9.0,18.0,45,0.00,,,0.00,meteohub,2013-03-17 14:44:00,
2013-03-17 10:49:00,33.6,14.5,30.07,NW,325,15.0,18.0,45,0.00,,,0.00,meteohub,2013-03-17 14:49:00,
2013-03-17 10:54:00,33.6,12.9,30.07,WNW,302,10.0,18.0,42,0.00,,,0.00,meteohub,2013-03-17 14:54:00,
2013-03-17 10:58:00,33.8,13.6,30.06,NNW,337,4.0,22.0,43,0.00,,,0.00,meteohub,2013-03-17 14:58:00,
2013-03-17 11:03:00,34.0,12.7,30.07,NW,319,14.0,22.0,41,0.00,,,0.00,meteohub,2013-03-17 15:03:00,
2013-03-17 11:09:00,33.8,13.1,30.07,NW,325,12.0,23.0,42,0.00,,,0.00,meteohub,2013-03-17 15:09:00,
2013-03-17 11:14:00,34.0,13.8,30.07,NW,309,4.0,23.0,43,0.00,,,0.00,meteohub,2013-03-17 15:14:00,
2013-03-17 11:19:00,34.3,13.1,30.08,WNW,298,15.0,23.0,41,0.00,,,0.00,meteohub,2013-03-17 15:19:00,
2013-03-17 11:24:00,34.0,13.3,30.07,NW,322,9.0,18.0,42,0.00,,,0.00,meteohub,2013-03-17 15:24:00,
2013-03-17 11:29:00,34.0,13.3,30.07,WNW,293,9.0,23.0,42,0.00,,,0.00,meteohub,2013-03-17 15:29:00,
2013-03-17 11:34:00,34.2,13.5,30.07,NW,324,14.0,23.0,42,0.00,,,0.00,meteohub,2013-03-17 15:34:00,
2013-03-17 11:39:00,34.2,13.5,30.06,NW,319,11.0,23.0,42,0.00,,,0.00,meteohub,2013-03-17 15:39:00,
2013-03-17 11:44:00,34.2,13.5,30.06,North,356,8.0,17.0,42,0.00,,,0.00,meteohub,2013-03-17 15:44:00,
2013-03-17 11:49:00,34.5,14.4,30.06,NNW,333,4.0,17.0,43,0.00,,,0.00,meteohub,2013-03-17 15:49:00,
2013-03-17 11:54:00,34.9,13.6,30.06,NW,310,11.0,15.0,41,0.00,,,0.00,meteohub,2013-03-17 15:54:00,
2013-03-17 11:59:00,35.2,13.3,30.06,NW,311,12.0,15.0,40,0.00,,,0.00,meteohub,2013-03-17 15:59:00,
2013-03-17 12:04:00,35.1,13.6,30.06,NW,318,6.0,15.0,41,0.00,,,0.00,meteohub,2013-03-17 16:04:00,
2013-03-17 12:09:00,35.2,13.8,30.06,WNW,290,6.0,15.0,41,0.00,,,0.00,meteohub,2013-03-17 16:09:00,
2013-03-17 12:14:00,35.6,13.6,30.06,North,359,3.0,16.0,40,0.00,,,0.00,meteohub,2013-03-17 16:14:00,
2013-03-17 12:19:00,36.1,14.2,30.06,NNW,338,4.0,16.0,40,0.00,,,0.00,meteohub,2013-03-17 16:19:00,
2013-03-17 12:24:00,36.5,13.3,30.05,WNW,295,21.0,21.0,38,0.00,,,0.00,meteohub,2013-03-17 16:24:00,
2013-03-17 12:29:00,36.3,13.1,30.05,WNW,300,6.0,21.0,38,0.00,,,0.00,meteohub,2013-03-17 16:29:00,
2013-03-17 12:34:00,36.7,12.9,30.05,NW,304,10.0,21.0,37,0.00,,,0.00,meteohub,2013-03-17 16:34:00,
2013-03-17 12:39:00,36.7,12.9,30.05,WNW,296,15.0,21.0,37,0.00,,,0.00,meteohub,2013-03-17 16:39:00,
2013-03-17 12:44:00,36.5,13.3,30.04,NW,311,14.0,22.0,38,0.00,,,0.00,meteohub,2013-03-17 16:44:00,
2013-03-17 12:49:00,37.0,13.1,30.04,NW,318,13.0,22.0,37,0.00,,,0.00,meteohub,2013-03-17 16:49:00,
2013-03-17 12:54:00,37.0,12.6,30.04,NW,318,13.0,22.0,36,0.00,,,0.00,meteohub,2013-03-17 16:54:00,
2013-03-17 12:59:00,37.0,12.6,30.04,NNW,330,7.0,22.0,36,0.00,,,0.00,meteohub,2013-03-17 16:59:00,
2013-03-17 13:04:00,37.0,13.1,30.04,NNE,25,12.0,22.0,37,0.00,,,0.00,meteohub,2013-03-17 17:04:00,
2013-03-17 13:09:00,37.4,13.5,30.04,NW,316,4.0,22.0,37,0.00,,,0.00,meteohub,2013-03-17 17:09:00,
2013-03-17 13:14:00,37.8,13.3,30.04,NW,312,18.0,20.0,36,0.00,,,0.00,meteohub,2013-03-17 17:14:00,
2013-03-17 13:19:00,37.8,12.6,30.04,NNW,340,15.0,20.0,35,0.00,,,0.00,meteohub,2013-03-17 17:19:00,
2013-03-17 13:24:00,37.2,13.3,30.04,NW,304,5.0,22.0,37,0.00,,,0.00,meteohub,2013-03-17 17:24:00,
2013-03-17 13:29:00,37.9,13.3,30.04,NNE,17,8.0,22.0,36,0.00,,,0.00,meteohub,2013-03-17 17:29:00,
2013-03-17 13:34:00,37.6,13.1,30.04,NW,314,12.0,22.0,36,0.00,,,0.00,meteohub,2013-03-17 17:34:00,
2013-03-17 13:39:00,37.6,12.4,30.04,NNW,333,15.0,22.0,35,0.00,,,0.00,meteohub,2013-03-17 17:39:00,
2013-03-17 13:44:00,37.6,12.4,30.04,NW,321,16.0,22.0,35,0.00,,,0.00,meteohub,2013-03-17 17:44:00,
2013-03-17 13:49:00,37.6,11.7,30.05,NW,309,8.0,22.0,34,0.00,,,0.00,meteohub,2013-03-17 17:49:00,
2013-03-17 13:54:00,37.8,12.6,30.05,NW,310,17.0,23.0,35,0.00,,,0.00,meteohub,2013-03-17 17:54:00,
2013-03-17 14:00:00,37.6,12.4,30.05,NNW,330,11.0,23.0,35,0.00,,,0.00,meteohub,2013-03-17 18:00:00,
2013-03-17 14:05:00,37.2,12.7,30.05,NW,314,9.0,22.0,36,0.00,,,0.00,meteohub,2013-03-17 18:05:00,
2013-03-17 14:10:00,37.8,12.6,30.05,NW,308,13.0,22.0,35,0.00,,,0.00,meteohub,2013-03-17 18:10:00,
2013-03-17 14:15:00,37.8,12.6,30.05,NW,322,5.0,20.0,35,0.00,,,0.00,meteohub,2013-03-17 18:15:00,
2013-03-17 14:20:00,38.3,13.1,30.04,NW,321,11.0,18.0,35,0.00,,,0.00,meteohub,2013-03-17 18:20:00,
2013-03-17 14:25:00,38.1,12.2,30.05,WNW,300,9.0,20.0,34,0.00,,,0.00,meteohub,2013-03-17 18:25:00,
2013-03-17 14:30:00,38.1,11.5,30.05,NNW,347,12.0,21.0,33,0.00,,,0.00,meteohub,2013-03-17 18:30:00,
2013-03-17 14:35:00,37.9,12.0,30.06,WNW,298,13.0,21.0,34,0.00,,,0.00,meteohub,2013-03-17 18:35:00,
2013-03-17 14:40:00,38.5,12.6,30.05,WNW,295,10.0,22.0,34,0.00,,,0.00,meteohub,2013-03-17 18:40:00,
2013-03-17 14:45:00,38.7,11.3,30.06,NW,305,10.0,22.0,32,0.00,,,0.00,meteohub,2013-03-17 18:45:00,
2013-03-17 14:50:00,38.8,11.5,30.06,NW,325,15.0,22.0,32,0.00,,,0.00,meteohub,2013-03-17 18:50:00,
2013-03-17 14:55:00,38.5,9.7,30.06,NW,314,11.0,15.0,30,0.00,,,0.00,meteohub,2013-03-17 18:55:00,
2013-03-17 15:00:00,38.3,9.5,30.06,NW,322,4.0,17.0,30,0.00,,,0.00,meteohub,2013-03-17 19:00:00,
2013-03-17 15:05:00,38.3,9.5,30.06,NNW,330,12.0,23.0,30,0.00,,,0.00,meteohub,2013-03-17 19:05:00,
2013-03-17 15:10:00,38.3,8.8,30.06,NNW,347,8.0,23.0,29,0.00,,,0.00,meteohub,2013-03-17 19:10:00,
2013-03-17 15:15:00,38.1,7.9,30.07,NNW,336,17.0,23.0,28,0.00,,,0.00,meteohub,2013-03-17 19:15:00,
2013-03-17 15:20:00,38.1,7.9,30.07,NW,312,10.0,22.0,28,0.00,,,0.00,meteohub,2013-03-17 19:20:00,
2013-03-17 15:25:00,38.1,7.9,30.08,NNW,334,14.0,22.0,28,0.00,,,0.00,meteohub,2013-03-17 19:25:00,
2013-03-17 15:30:00,37.9,7.7,30.08,NW,323,12.0,21.0,28,0.00,,,0.00,meteohub,2013-03-17 19:30:00,
2013-03-17 15:35:00,37.9,7.7,30.08,NW,325,5.0,21.0,28,0.00,,,0.00,meteohub,2013-03-17 19:35:00,
2013-03-17 15:40:00,37.9,7.7,30.08,NW,312,5.0,21.0,28,0.00,,,0.00,meteohub,2013-03-17 19:40:00,
2013-03-17 15:45:00,38.1,8.6,30.08,NW,313,9.0,19.0,29,0.00,,,0.00,meteohub,2013-03-17 19:45:00,
2013-03-17 15:50:00,38.1,7.9,30.08,WNW,295,13.0,16.0,28,0.00,,,0.00,meteohub,2013-03-17 19:50:00,
2013-03-17 15:55:00,37.9,8.4,30.08,NW,322,7.0,16.0,29,0.00,,,0.00,meteohub,2013-03-17 19:55:00,
2013-03-17 16:00:00,37.9,7.7,30.08,WNW,302,13.0,17.0,28,0.00,,,0.00,meteohub,2013-03-17 20:00:00,
2013-03-17 16:05:00,37.9,7.0,30.09,NW,309,16.0,18.0,27,0.00,,,0.00,meteohub,2013-03-17 20:05:00,
2013-03-17 16:10:00,37.8,6.8,30.09,NW,310,5.0,18.0,27,0.00,,,0.00,meteohub,2013-03-17 20:10:00,
2013-03-17 16:15:00,37.8,6.8,30.09,NW,308,11.0,18.0,27,0.00,,,0.00,meteohub,2013-03-17 20:15:00,
2013-03-17 16:20:00,37.8,6.8,30.09,NW,322,18.0,18.0,27,0.00,,,0.00,meteohub,2013-03-17 20:20:00,
2013-03-17 16:25:00,37.8,6.8,30.09,WNW,293,11.0,15.0,27,0.00,,,0.00,meteohub,2013-03-17 20:25:00,
2013-03-17 16:30:00,37.8,6.8,30.09,NNE,15,14.0,18.0,27,0.00,,,0.00,meteohub,2013-03-17 20:30:00,
2013-03-17 16:35:00,37.8,6.8,30.09,NW,311,9.0,18.0,27,0.00,,,0.00,meteohub,2013-03-17 20:35:00,
2013-03-17 16:40:00,37.8,5.9,30.10,NNW,330,8.0,18.0,26,0.00,,,0.00,meteohub,2013-03-17 20:40:00,
2013-03-17 16:45:00,37.6,6.6,30.10,NNW,330,6.0,18.0,27,0.00,,,0.00,meteohub,2013-03-17 20:45:00,
2013-03-17 16:50:00,37.6,7.3,30.10,WNW,294,9.0,18.0,28,0.00,,,0.00,meteohub,2013-03-17 20:50:00,
2013-03-17 16:55:00,37.6,7.3,30.10,WNW,299,7.0,17.0,28,0.00,,,0.00,meteohub,2013-03-17 20:55:00,
2013-03-17 17:00:00,37.8,5.9,30.11,NNW,338,7.0,17.0,26,0.00,,,0.00,meteohub,2013-03-17 21:00:00,
2013-03-17 17:05:00,37.8,5.9,30.11,NNW,347,7.0,16.0,26,0.00,,,0.00,meteohub,2013-03-17 21:05:00,
2013-03-17 17:10:00,37.8,6.8,30.11,NW,319,12.0,16.0,27,0.00,,,0.00,meteohub,2013-03-17 21:10:00,
2013-03-17 17:15:00,37.6,6.6,30.12,WNW,299,7.0,16.0,27,0.00,,,0.00,meteohub,2013-03-17 21:15:00,
2013-03-17 17:20:00,37.6,6.6,30.12,NW,316,12.0,16.0,27,0.00,,,0.00,meteohub,2013-03-17 21:20:00,
2013-03-17 17:25:00,37.2,6.3,30.12,WNW,285,12.0,14.0,27,0.00,,,0.00,meteohub,2013-03-17 21:25:00,
2013-03-17 17:30:00,37.2,6.3,30.12,North,356,8.0,16.0,27,0.00,,,0.00,meteohub,2013-03-17 21:30:00,
2013-03-17 17:35:00,37.0,6.1,30.12,NW,323,9.0,16.0,27,0.00,,,0.00,meteohub,2013-03-17 21:35:00,
2013-03-17 17:40:00,37.2,7.2,30.13,NW,308,12.0,16.0,28,0.00,,,0.00,meteohub,2013-03-17 21:40:00,
2013-03-17 17:45:00,37.2,7.2,30.13,NNW,328,7.0,14.0,28,0.00,,,0.00,meteohub,2013-03-17 21:45:00,
2013-03-17 17:50:00,37.0,7.0,30.13,NW,305,7.0,14.0,28,0.00,,,0.00,meteohub,2013-03-17 21:50:00,
2013-03-17 17:55:00,37.2,7.9,30.13,NNW,340,7.0,14.0,29,0.00,,,0.00,meteohub,2013-03-17 21:55:00,
2013-03-17 18:00:00,37.0,6.1,30.13,NNW,333,10.0,14.0,27,0.00,,,0.00,meteohub,2013-03-17 22:00:00,
2013-03-17 18:05:00,36.9,6.8,30.14,WNW,298,6.0,14.0,28,0.00,,,0.00,meteohub,2013-03-17 22:05:00,
2013-03-17 18:10:00,36.9,6.8,30.14,NW,314,4.0,14.0,28,0.00,,,0.00,meteohub,2013-03-17 22:10:00,
2013-03-17 18:15:00,36.9,6.8,30.14,NNW,332,7.0,14.0,28,0.00,,,0.00,meteohub,2013-03-17 22:15:00,
2013-03-17 18:20:00,36.7,7.3,30.15,NW,322,5.0,13.0,29,0.00,,,0.00,meteohub,2013-03-17 22:20:00,
2013-03-17 18:25:00,36.7,7.3,30.15,WNW,302,3.0,13.0,29,0.00,,,0.00,meteohub,2013-03-17 22:25:00,
2013-03-17 18:31:00,36.3,7.9,30.16,NW,316,6.0,9.0,30,0.00,,,0.00,meteohub,2013-03-17 22:31:00,
2013-03-17 18:36:00,36.1,7.7,30.16,NNW,328,4.0,14.0,30,0.00,,,0.00,meteohub,2013-03-17 22:36:00,
2013-03-17 18:41:00,36.0,8.2,30.16,NW,312,2.0,14.0,31,0.00,,,0.00,meteohub,2013-03-17 22:41:00,
2013-03-17 18:46:00,36.0,8.2,30.16,NNW,330,5.0,14.0,31,0.00,,,0.00,meteohub,2013-03-17 22:46:00,
2013-03-17 18:51:00,36.0,8.2,30.17,NW,311,4.0,10.0,31,0.00,,,0.00,meteohub,2013-03-17 22:51:00,
2013-03-17 18:56:00,35.8,8.1,30.17,NW,322,5.0,9.0,31,0.00,,,0.00,meteohub,2013-03-17 22:56:00,
2013-03-17 19:01:00,35.4,8.4,30.17,NW,320,1.0,8.0,32,0.00,,,0.00,meteohub,2013-03-17 23:01:00,
2013-03-17 19:07:00,35.4,8.4,30.18,NW,311,2.0,8.0,32,0.00,,,0.00,meteohub,2013-03-17 23:07:00,
2013-03-17 19:12:00,35.2,8.2,30.18,WNW,302,3.0,6.0,32,0.00,,,0.00,meteohub,2013-03-17 23:12:00,
2013-03-17 19:17:00,35.1,8.8,30.19,NW,304,2.0,5.0,33,0.00,,,0.00,meteohub,2013-03-17 23:17:00,
2013-03-17 19:22:00,34.9,8.6,30.19,NW,311,2.0,5.0,33,0.00,,,0.00,meteohub,2013-03-17 23:22:00,
2013-03-17 19:27:00,34.9,8.6,30.19,WNW,294,0.0,5.0,33,0.00,,,0.00,meteohub,2013-03-17 23:27:00,
2013-03-17 19:32:00,34.5,9.0,30.20,NW,304,0.0,3.0,34,0.00,,,0.00,meteohub,2013-03-17 23:32:00,
2013-03-17 19:37:00,34.2,9.3,30.20,NW,312,0.0,2.0,35,0.00,,,0.00,meteohub,2013-03-17 23:37:00,
2013-03-17 19:42:00,34.0,9.1,30.20,WNW,296,1.0,2.0,35,0.00,,,0.00,meteohub,2013-03-17 23:42:00,
2013-03-17 19:47:00,33.6,10.0,30.20,WNW,288,2.0,2.0,37,0.00,,,0.00,meteohub,2013-03-17 23:47:00,
2013-03-17 19:52:00,33.1,12.0,30.21,WNW,290,0.0,2.0,41,0.00,,,0.00,meteohub,2013-03-17 23:52:00,
2013-03-17 19:57:00,32.7,9.9,30.21,WNW,294,0.0,2.0,38,0.00,,,0.00,meteohub,2013-03-17 23:57:00,
2013-03-17 20:02:00,32.5,13.6,30.21,WNW,294,0.0,2.0,45,0.00,,,0.00,meteohub,2013-03-18 00:02:00,
2013-03-17 20:07:00,32.2,11.7,30.22,WNW,294,0.0,2.0,42,0.00,,,0.00,meteohub,2013-03-18 00:07:00,
2013-03-17 20:13:00,32.0,13.1,30.22,WNW,293,0.0,0.0,45,0.00,,,0.00,meteohub,2013-03-18 00:13:00,
2013-03-17 20:18:00,33.1,21.6,30.22,WSW,249,0.0,1.0,62,0.00,,,0.00,meteohub,2013-03-18 00:18:00,
2013-03-17 20:23:00,32.4,14.4,30.22,WNW,283,1.0,1.0,47,0.00,,,0.00,meteohub,2013-03-18 00:23:00,
2013-03-17 20:28:00,31.5,13.1,30.22,WNW,282,0.0,2.0,46,0.00,,,0.00,meteohub,2013-03-18 00:28:00,
2013-03-17 20:33:00,31.3,12.9,30.23,WNW,283,0.0,2.0,46,0.00,,,0.00,meteohub,2013-03-18 00:33:00,
2013-03-17 20:38:00,30.9,15.8,30.23,WNW,283,0.0,2.0,53,0.00,,,0.00,meteohub,2013-03-18 00:38:00,
2013-03-17 20:43:00,30.6,15.1,30.24,WNW,283,0.0,1.0,52,0.00,,,0.00,meteohub,2013-03-18 00:43:00,
2013-03-17 20:48:00,30.0,15.4,30.24,WNW,283,0.0,0.0,54,0.00,,,0.00,meteohub,2013-03-18 00:48:00,
2013-03-17 20:53:00,29.7,17.1,30.24,WNW,283,0.0,0.0,59,0.00,,,0.00,meteohub,2013-03-18 00:53:00,
2013-03-17 20:58:00,29.1,15.4,30.24,West,281,0.0,0.0,56,0.00,,,0.00,meteohub,2013-03-18 00:58:00,
2013-03-17 21:03:00,28.8,14.2,30.24,West,281,0.0,0.0,54,0.00,,,0.00,meteohub,2013-03-18 01:03:00,
2013-03-17 21:08:00,28.4,14.7,30.24,West,281,0.0,0.0,56,0.00,,,0.00,meteohub,2013-03-18 01:08:00,
2013-03-17 21:13:00,28.0,14.4,30.25,West,281,0.0,0.0,56,0.00,,,0.00,meteohub,2013-03-18 01:13:00,
2013-03-17 21:18:00,28.0,14.0,30.25,West,281,0.0,0.0,55,0.00,,,0.00,meteohub,2013-03-18 01:18:00,
2013-03-17 21:23:00,28.6,14.5,30.26,WNW,284,0.0,0.0,55,0.00,,,0.00,meteohub,2013-03-18 01:23:00,
2013-03-17 21:28:00,28.6,14.9,30.26,WNW,284,0.0,0.0,56,0.00,,,0.00,meteohub,2013-03-18 01:28:00,
2013-03-17 21:33:00,28.9,14.4,30.26,WNW,296,0.0,0.0,54,0.00,,,0.00,meteohub,2013-03-18 01:33:00,
2013-03-17 21:38:00,29.5,13.1,30.26,NW,304,0.0,1.0,50,0.00,,,0.00,meteohub,2013-03-18 01:38:00,
2013-03-17 21:43:00,30.0,11.7,30.27,WNW,295,2.0,3.0,46,0.00,,,0.00,meteohub,2013-03-18 01:43:00,
2013-03-17 21:48:00,30.6,11.3,30.27,NNW,328,0.0,3.0,44,0.00,,,0.00,meteohub,2013-03-18 01:48:00,
2013-03-17 21:53:00,30.6,11.7,30.27,NNW,330,0.0,3.0,45,0.00,,,0.00,meteohub,2013-03-18 01:53:00,
2013-03-17 21:58:00,30.7,11.8,30.27,WNW,301,0.0,3.0,45,0.00,,,0.00,meteohub,2013-03-18 01:58:00,
2013-03-17 22:03:00,30.7,12.4,30.27,NW,308,1.0,3.0,46,0.00,,,0.00,meteohub,2013-03-18 02:03:00,
2013-03-17 22:08:00,30.6,12.7,30.27,WNW,286,0.0,3.0,47,0.00,,,0.00,meteohub,2013-03-18 02:08:00,
2013-03-17 22:13:00,30.4,12.0,30.28,WNW,283,0.0,3.0,46,0.00,,,0.00,meteohub,2013-03-18 02:13:00,
2013-03-17 22:18:00,30.4,11.7,30.28,NW,321,0.0,3.0,45,0.00,,,0.00,meteohub,2013-03-18 02:18:00,
2013-03-17 22:23:00,30.4,11.1,30.28,WNW,292,0.0,3.0,44,0.00,,,0.00,meteohub,2013-03-18 02:23:00,
2013-03-17 22:28:00,30.4,10.6,30.29,NW,308,3.0,3.0,43,0.00,,,0.00,meteohub,2013-03-18 02:28:00,
2013-03-17 22:33:00,30.4,10.6,30.29,NW,320,1.0,3.0,43,0.00,,,0.00,meteohub,2013-03-18 02:33:00,
2013-03-17 22:38:00,30.4,10.6,30.29,NW,326,4.0,6.0,43,0.00,,,0.00,meteohub,2013-03-18 02:38:00,
2013-03-17 22:43:00,30.6,10.8,30.29,WNW,302,4.0,6.0,43,0.00,,,0.00,meteohub,2013-03-18 02:43:00,
2013-03-17 22:48:00,30.4,11.1,30.29,WNW,299,5.0,6.0,44,0.00,,,0.00,meteohub,2013-03-18 02:48:00,
2013-03-17 22:53:00,30.4,10.6,30.30,NW,321,1.0,6.0,43,0.00,,,0.00,meteohub,2013-03-18 02:53:00,
2013-03-17 22:58:00,30.6,10.8,30.30,WNW,300,5.0,6.0,43,0.00,,,0.00,meteohub,2013-03-18 02:58:00,
2013-03-17 23:03:00,30.6,10.8,30.30,WNW,288,3.0,6.0,43,0.00,,,0.00,meteohub,2013-03-18 03:03:00,
2013-03-17 23:08:00,30.4,11.1,30.30,NW,305,3.0,6.0,44,0.00,,,0.00,meteohub,2013-03-18 03:08:00,
2013-03-17 23:13:00,30.0,10.8,30.30,NW,319,1.0,6.0,44,0.00,,,0.00,meteohub,2013-03-18 03:13:00,
2013-03-17 23:18:00,30.0,10.8,30.30,NW,310,1.0,6.0,44,0.00,,,0.00,meteohub,2013-03-18 03:18:00,
2013-03-17 23:23:00,29.8,10.6,30.31,NNW,328,2.0,4.0,44,0.00,,,0.00,meteohub,2013-03-18 03:23:00,
2013-03-17 23:28:00,29.8,10.6,30.31,NW,308,3.0,4.0,44,0.00,,,0.00,meteohub,2013-03-18 03:28:00,
2013-03-17 23:33:00,29.8,11.1,30.31,NW,316,2.0,4.0,45,0.00,,,0.00,meteohub,2013-03-18 03:33:00,
2013-03-17 23:38:00,29.7,10.9,30.31,NNW,336,1.0,4.0,45,0.00,,,0.00,meteohub,2013-03-18 03:38:00,
2013-03-17 23:44:00,29.7,10.9,30.31,NNW,328,2.0,5.0,45,0.00,,,0.00,meteohub,2013-03-18 03:44:00,
2013-03-17 23:49:00,29.5,10.8,30.32,WNW,283,0.0,5.0,45,0.00,,,0.00,meteohub,2013-03-18 03:49:00,
2013-03-17 23:54:00,29.5,11.3,30.31,North,5,0.0,5.0,46,0.00,,,0.00,meteohub,2013-03-18 03:54:00,
2013-03-17 23:59:00,29.1,10.9,30.31,NNE,26,2.0,4.0,46,0.00,,,0.00,meteohub,2013-03-18 03:59:00,